Location: Cardiff
(53.7833°N, 113.6000°W)
Time: 19:40:55
(UTC+00:00)

RS-15 - Pass Details

Date: 10 December 2023
Orbit: 1893 x 2151 km, 64.8° (Epoch: 24 February)

Event Time Altitude Azimuth Distance (km) Brightness Sun altitude
Exits shadow 10:26:35 72° 76° (ENE) 2,050 8.0 -44.4°
Drops below altitude 10° 10:36:40 10° 125° (SE) 4,307 10.1 -43.0°
Sets 10:39:53 0° 127° (SE) 5,286 10.6 -42.6°
